Volver al catálogo

STARLINK-5837

ActivoComunicacionesSSO
NORAD 56346·PAYLOAD·🇺🇸 United States

Lanzado Apr 27, 2023 desde Vandenberg Space Force Base

Loading…

Próximos Pases (próximas 24 horas)

TLE

ActualizadoSource: CelesTrak SupGP

Época: Sep 14, 2026, 20:52 UTC

1 56346C 23058AF  26257.86993056  .00055228  00000+0  33576-2 0  2574
2 56346  97.2852 252.0684 0002201  86.1171   2.9866 15.10519793    18

Sigue STARLINK-5837 en tiempo real con AllMySat

Download on the App Store